www.pogodaiklimat.ru

ПОГОДА в Сухане

  • Прогноз погоды в Сухане
  • Монитор погоды в Сухане
  • Климат города

АРХИВ ПОГОДЫ в Сухане

Время (UTC), дата Ветер
(напр.,м/с)
 
Видим.   Явления Облачность Т
(С)
Тd
(С)
f
(%)
Тe
(С)
Тes
(С)
Комфортность P
(гПа)
Po
(гПа)
Тmin
(С)
Tmax
(С)
R
(мм)
S
(см)
03 9.01 штиль 0 50 км слабый снег 10/0
[As op]
-24.7 -27.1 80 -25 -25 1020.9 1010.1
06 9.01 штиль 0 50 км {снег} 10/0
[Ac As]
-20.6 -23.1 80 -21 -21 1021.5 1010.9
09 9.01 Ю 3 50 км {метель} 8/0
[Ac As Cs]
-18.4 -21.0 80 -26 -26 1022.8 1012.2
12 9.01 Ю 3 50 км {метель} 8/0
[Ac As Cs]
-18.4 -21.0 80 -26 -26 1022.8 1012.2
15 9.01 штиль 0 50 км 10/0
[Ac lent Cs]
-22.5 -25.0 80 -23 -23 1023.7 1013.1
18 9.01 штиль 0 20 км слабый снег 10/0
[As op]
-20.3 -22.9 80 -20 -20 1024.0 1013.4
21 9.01 штиль 0 50 км {снег} ясно -21.0 -23.5 80 -21 -21 1023.9 1013.3
00 10.01 С 1 50 км {снег} ясно -21.9 -24.4 80 -25 -25 1024.1 1013.5 -22.7 0.2 36
03 10.01 С 2 50 км позёмок {метель} 10/0
[Ac As]
-19.1 -21.7 80 -25 -25 1024.4 1013.8
06 10.01 С 4 50 км позёмок {метель} 10/0
[Ac As]
-18.7 -21.3 80 -27 -27 1026.0 1015.4
09 10.01 СЗ 2 50 км {метель} 3/0
[Ac lent]
-21.2 -23.7 80 -27 -27 1027.7 1017.1
21 10.01 штиль 0 50 км 10/0
[Cs]
-31.5 -33.8 80 -32 -32 опасность
обморожения
1032.4 1021.2
00 11.01 штиль 0 50 км 10/0
[Cs]
-31.9 -34.3 79 -32 -32 опасность
обморожения
1034.3 1023.1 -32.2 36
03 11.01 Ю 1 50 км 3/0
[Ac lent Cs]
-34.9 -37.0 81 -40 -40 опасность
обморожения
1036.1 1024.7
06 11.01 штиль 0 50 км 3/0
[Cs]
-37.4 -39.5 81 -37 -37 опасность
обморожения
1037.4 1026.0
09 11.01 штиль 0 50 км 1/0
[Cs]
-39.7 -41.6 82 -40 -40 опасность
обморожения
1039.4 1027.8
12 11.01 штиль 0 50 км ясно -41.8 -43.7 82 -42 -42 опасность
обморожения
1041.0 1029.4 -31.9
15 11.01 штиль 0 50 км ясно -43.4 -45.6 79 -43 -43 опасность
обморожения
1042.2 1030.2
18 11.01 штиль 0 50 км ясно -44.5 -46.9 77 -45 -45 опасность
обморожения
1042.7 1030.7
21 11.01 штиль 0 50 км 1/0
[Ac lent]
-45.1 -47.6 76 -45 -45 опасность
обморожения
1042.7 1030.7
00 12.01 штиль 0 50 км ясно -46.0 -48.5 76 -46 -46 опасность
обморожения
1043.2 1031.2 -46.0 36
03 12.01 штиль 0 50 км 3/0
[Ac lent]
-45.9 -48.5 75 -46 -46 опасность
обморожения
1043.9 1031.9
06 12.01 штиль 0 50 км 4/0
[Ac lent Cc]
-46.0 -48.5 76 -46 -46 опасность
обморожения
1043.9 1031.9
09 12.01 штиль 0 50 км 8/0
[Ac lent Cs]
-45.9 -48.5 75 -46 -46 опасность
обморожения
1044.0 1032.0
12 12.01 штиль 0 50 км ясно -46.5 -49.4 72 -47 -47 опасность
обморожения
1044.3 1032.3 -45.3
15 12.01 штиль 0 50 км ясно -47.1 -49.4 77 -47 -47 опасность
обморожения
1044.7 1032.7
18 12.01 штиль 0 50 км ясно -47.1 -49.4 77 -47 -47 опасность
обморожения
1044.4 1032.4
21 12.01 штиль 0 50 км ясно -47.0 -49.4 76 -47 -47 опасность
обморожения
1045.1 1033.1
00 13.01 штиль 0 50 км ясно -47.3 -49.4 79 -47 -47 опасность
обморожения
1045.6 1033.6 -47.5 36
03 13.01 штиль 0 50 км ясно -46.5 -49.4 72 -47 -47 опасность
обморожения
1045.9 1033.9
06 13.01 штиль 0 50 км ясно -47.3 -49.4 79 -47 -47 опасность
обморожения
1045.5 1033.5
09 13.01 штиль 0 50 км ясно -47.2 -49.4 78 -47 -47 опасность
обморожения
1046.3 1034.3
12 13.01 штиль 0 50 км ясно -47.2 -49.4 78 -47 -47 опасность
обморожения
1046.3 1034.3 -46.5
15 13.01 штиль 0 50 км ясно -47.5 -50.5 71 -48 -48 опасность
обморожения
1046.7 1034.4
18 13.01 штиль 0 50 км ясно -47.6 -50.5 72 -48 -48 опасность
обморожения
1047.3 1035.0
21 13.01 штиль 0 50 км ясно -48.6 -51.6 71 -49 -49 опасность
обморожения
1046.9 1034.6
00 14.01 штиль 0 50 км ясно -48.6 -51.6 71 -49 -49 опасность
обморожения
1047.0 1034.7 -48.6 36
03 14.01 штиль 0 50 км ясно -48.6 -51.6 71 -49 -49 опасность
обморожения
1047.8 1035.5
06 14.01 штиль 0 50 км 3/0
[Cs]
-48.1 -50.5 76 -48 -48 опасность
обморожения
1048.3 1036.0
09 14.01 штиль 0 50 км 3/0
[Ac lent Cs]
-47.8 -50.5 73 -48 -48 опасность
обморожения
1048.7 1036.4
12 14.01 штиль 0 50 км 3/0
[Cs]
-46.1 -48.5 76 -46 -46 опасность
обморожения
1048.6 1036.6 -46.1
15 14.01 штиль 0 50 км ясно -46.0 -48.5 76 -46 -46 опасность
обморожения
1049.0 1037.0
18 14.01 штиль 0 50 км ясно -46.0 -48.5 76 -46 -46 опасность
обморожения
1049.1 1037.1
21 14.01 штиль 0 50 км ясно -46.3 -48.5 78 -46 -46 опасность
обморожения
1049.5 1037.5
00 15.01 штиль 0 50 км ясно -46.7 -49.4 74 -47 -47 опасность
обморожения
1049.4 1037.4 -46.7 36
03 15.01 штиль 0 50 км ясно -47.0 -49.4 76 -47 -47 опасность
обморожения
1049.2 1037.2
06 15.01 штиль 0 50 км ясно -46.2 -48.5 77 -46 -46 опасность
обморожения
1048.6 1036.6
09 15.01 штиль 0 50 км ясно -46.5 -49.4 72 -47 -47 опасность
обморожения
1048.6 1036.6
12 15.01 штиль 0 50 км ясно -47.0 -49.4 76 -47 -47 опасность
обморожения
1048.7 1036.7 -45.9
15 15.01 штиль 0 50 км ясно -47.2 -49.4 78 -47 -47 опасность
обморожения
1037.9 1035.9
18 15.01 штиль 0 50 км ясно -47.1 -49.4 77 -47 -47 опасность
обморожения
1047.4 1035.4
21 15.01 штиль 0 50 км ясно -47.1 -49.4 77 -47 -47 опасность
обморожения
1046.4 1034.4
00 16.01 штиль 0 50 км ясно -47.2 -49.4 78 -47 -47 опасность
обморожения
1045.8 1033.8 -47.2 36
03 16.01 штиль 0 50 км 1/0
[Cs]
-47.1 -49.4 77 -47 -47 опасность
обморожения
1044.3 1032.3
06 16.01 штиль 0 50 км 3/0
[Cs]
-46.5 -49.4 72 -47 -47 опасность
обморожения
1043.5 1031.5
09 16.01 штиль 0 50 км ясно -47.0 -49.4 76 -47 -47 опасность
обморожения
1042.6 1030.6

 

Местоположение метеостанции Сухана (Якутия, Россия): широта 68.62 долгота 118.30 высота над уровнем моря 77 м.

В архиве по умолчанию представлена погода в Сухане за последнюю неделю. Архивные данные за месяц целиком и за предыдущие месяцы, начиная с января 2011 года, Вы можете получить, выбрав интересующий диапазон дат из раскрывающегося списка и нажав кнопку "Ввод!".

Внимание! Время в таблицах - всемирное. Для получения местного времени необходимо прибавить поправку, которая в Сухане равна 9 ч.

Ветер - указаны скорость ветра в м/с - средняя за 10 мин, порывы в срок и между сроками (в фигурных скобках) и направление, откуда дует ветер: С - северный, СВ - северо-восточный, В - восточный, ЮВ - юго-восточный, Ю - южный, ЮЗ - юго-западный, З - западный, СЗ - северо-западный.
Видимость - горизонтальная дальность видимости в метрах или километрах. При видимости от 1 до 10 км при отсутствии осадков обычно наблюдается дымка, при ухудшении видимости до 1 км и менее - туман. В сухую погоду видимость может ухудшаться дымом, пылью или мглою.
Явления - указаны атмосферные явления, наблюдавшиеся в срок или в последний час перед сроком; фигурными скобками обозначены явления, наблюдавшиеся между сроками (за 1-3 часа до срока); квадратными скобками обозначены град или гололедные отложения с указанием их диаметра в мм.
Облачность - указаны через наклонную черту общая и нижняя облачность в баллах и высота нижней границы облаков в метрах; квадратными скобками обозначены формы облаков: Ci - перистые, Cs - перисто-слоистые, Cc - перисто-кучевые, Ac - высококучевые, As - высокослоистые, Sc - слоисто-кучевые, Ns - слоисто-дождевые, Cu - кучевые, Cb - кучево-дождевые. Подробнее классификацию облаков см. в Атласе облаков (PDF).
T - Температура воздуха - температура, измеренная на высоте 2 м над землей.
Td - Температура точки росы - температура, при понижении до которой содержащийся в воздухе водяной пар достигнет насыщения.
f - Относительная влажность воздуха - влажноcть воздуха, измеренная на высоте 2 м над землей.
Te - Эффективная температура - температура, которую ощущает одетый по сезону человек в тени. Характеристика душности погоды. При расчете учитывается влияние влажности воздуха и скорости ветра на теплоощущения человека.
Tes - Эффективная температура на солнце - температура, которую ощущает человек, с поправкой на солнечный нагрев. Характеристика знойности погоды. Зависит от высоты солнца над горизонтом, облачности и скорости ветра. Ночью, в пасмурную погоду, а также при ветре 12 м/с и более поправка равна нулю.
P - Атмосферное давление - приведенное к уровню моря атмосферное давление.
Po - Атмосферное давление - измеренное на уровне метеостанции атмосферное давление.
Tmin - Минимальная температура - минимум температуры воздуха на высоте 2 м над землей.
Tmax - Максимальная температура - максимум температуры воздуха на высоте 2 м над землей.
R - Количество осадков - Количество выпавших осадков, мм. При наведении курсора мыши на число - период времени, за который выпало указанное количество осадков.
S - Снежный покров - Высота снежного покрова, см. При наведении курсора мыши на число - состояние снежного покрова и степень покрытия местности в баллах.